Bangkok/Don Mueang International Airport

Airport
ICAO code: 
VTBD
IATA Code: 
DMK
Summary
ICAO Region: 
APAC
Territory: 
Location: 
Don Mueang, Bangkok,
Serving: 
Bangkok
Elevation: 
9 ft
Coordinates: 
Aerial View: 
13° 54' 50.436" N, 100° 36' 14.328" E
Metar
Observation
VTBD 251300Z 18005KT 9999 FEW020CB SCT040 30/26 Q1007 NOSIG
Station
Don Muang
Date/Time
2022-05-25 13:00:00
Wind direction
180°
Wind speed
05 kts
Lowest cloud amount
few clouds
Temperature
30°C
Dew point
26°C
Humidity
79%
QNH
1007 hPa
Weather condition
n/a

Don Mueang International Airport is one of two international airports serving the Bangkok Metropolitan Region, the other one being Suvarnabhumi Airport (BKK). Before Suvarnabhumi opened in 2006, Don Mueang was previously known as Bangkok International Airport.

Climatology

Tropical Savanna climate (Köppen climate classification Aw)

Runways

Designator Length Width Surface Rops
03R/21L 3500 45 ASP Yes/Yes
03L/21R 3700 60 ASP Yes/Yes
Airport map: 
Aerial View: 

Accidents and Serious Incidents at or in the vicinity of VTBD

SKYbrary Partners:

Safety knowledge contributed by: